Tracking 17154 objects as of 3-August-2015
HD Live streaming from Space Station

ARIANE 5 R/B

Track ARIANE 5 R/B now!
ARIANE 5 R/B is classified as:


NORAD ID: 29275
Int'l Code: 2006-033D
Perigee: 292.7 km
Apogee: 33,617.5 km
Inclination: 5.8 °
Period: 590.9 minutes
Semi major axis: 23326 km
RCS: 37.7588 m2 (large)
Launch date: August 11, 2006
Source: France (FR)

Note: This is a ROCKET BODY
Your satellite tracking list
Your tracking list is empty





NASA's NSSDC Master Catalog

Two Line Element Set (TLE):
1 29275U 06033D   15213.42481520  .00001030  00000-0  50076-3 0  9990
2 29275 005.7948 155.1002 7143228 076.7722 029.2474 02.43690946 77018

Source of the keplerian elements: AFSPC

N2YO: 282